AirNav   Everest Fuels
 
 605 users online  

33J Geneva Municipal Airport
Geneva, Alabama, USA

GOING TO GENEVA?


FAA INFORMATION EFFECTIVE 25 MARCH 2021

Location

FAA Identifier: 33J
Lat/Long: 31-03-09.4500N 085-52-08.2000W
31-03.157500N 085-52.136667W
31.0526250,-85.8689444
(estimated)
Elevation: 100.3 ft. / 31 m (estimated)
Variation: 04W (2015)
From city: 2 miles N of GENEVA, AL
Time zone: UTC -5 (UTC -6 during Standard Time)
Zip code: 36340

Airport Operations

Airport use: Open to the public
Activation date: 12/1957
Control tower: no
ARTCC: JACKSONVILLE CENTER
FSS: ANNISTON FLIGHT SERVICE STATION
NOTAMs facility: ANB (NOTAM-D service available)
Attendance: MON-SAT 0800-1700, ALL SUN 1200-1700
Wind indicator: lighted
Segmented circle: no
Lights: ACTVT PAPI RWY 11 & 29; MIRL RWY 11/29 - CTAF.
Beacon: white-green (lighted land airport)
Operates sunset to sunrise.

Airport Communications

CTAF/UNICOM: 122.8
CAIRNS APPROACH: 133.75
CAIRNS DEPARTURE: 133.75
WX AWOS-3PT at EDN (15 nm N): 118.9 (334-347-3524)
WX AWOS-3PT at 1J0 (19 nm SE): 119.825 (850-547-1431)
  • APCH/DEP SVC PRVDD BY JACKSONVILLE ARTCC ON FREQS 134.3/322.55 (DOTHAN RCAG) WHEN CAIRNS APCH/DEP CLSD.

Nearby radio navigation aids

VOR radial/distance  VOR name  Freq  Var
EDNr176/(14.7)ENTERPRISE VOR116.6003W
OZRr212/14.9CAIRNS VOR/DME111.2003W
HEYr213/(22.3)HANCHEY VOR110.6003W
RRSr236/26.4WIREGRASS VORTAC111.6002E

 
NDB name  Hdg/Dist  Freq  Var  ID
RUCKR198/10.721203WOZ --- --..
BOLL WEEVIL164/18.235203WBVG -... ...- --.
LOWE202/19.626903WLOR .-.. --- .-.
HANCHEY213/22.322103WHYE .... -.-- .
JUDD121/30.826402WJUY .--- ..- -.--
SOYYA290/34.932902WSMY ... -- -.--

Airport Services

Fuel available: 100LL
Parking: tiedowns
Airframe service: MAJOR
Powerplant service: MAJOR
Bottled oxygen: NONE
Bulk oxygen: NONE

Runway Information

Runway 11/29

Dimensions: 3998 x 100 ft. / 1219 x 30 m
Surface: asphalt, in good condition
Weight bearing capacity: 
Single wheel: 16.0
Runway edge lights: medium intensity
Operational restrictions: MARKINGS FADED.
RUNWAY 11  RUNWAY 29
Latitude: 31-03.255833N31-03.059167N
Longitude: 085-52.502167W085-51.771000W
Elevation: 94.4 ft.95.8 ft.
Traffic pattern: leftleft
Runway heading: 111 magnetic, 107 true291 magnetic, 287 true
Markings: nonprecision, in poor conditionnonprecision, in poor condition
Visual slope indicator: 4-light PAPI on left (3.50 degrees glide path)4-light PAPI on left (3.50 degrees glide path)
Touchdown point: yes, no lightsyes, no lights
Obstructions: none35 ft. pole, 1274 ft. from runway, 55 ft. right of centerline, 30:1 slope to clear

Airport Ownership and Management from official FAA records

Ownership: Publicly-owned
Owner: TOWN OF GENEVA
PO BOX 37
GENEVA, AL 36340
Phone 334-684-2485
Manager: TOWN OF GENEVA
304 EAST AIRPORT AVE
GENEVA, AL 36340
Phone 334-684-2485

Airport Operational Statistics

Aircraft based on the field: 24
Single engine airplanes: 23
Ultralights: 1
    
Aircraft operations: avg 25/day *
90% transient general aviation
7% military
3% local general aviation
* for 12-month period ending 17 January 2020

Additional Remarks

FOR CD CTC CAIRNS APCH AT 334-255-8402, WHEN APCH CLSD CTC JACKSONVILLE ARTCC AT 904-845-1592.

Instrument Procedures

NOTE: All procedures below are presented as PDF files. If you need a reader for these files, you should download the free Adobe Reader.

NOT FOR NAVIGATION. Please procure official charts for flight.
FAA instrument procedures published for use from 25 March 2021 at 0901Z to 22 April 2021 at 0900z.

 
IAPs - Instrument Approach Procedures
RNAV (GPS) RWY 11   download (206KB)
RNAV (GPS) RWY 29   download (206KB)
NOTE: Special Take-Off Minimums/Departure Procedures apply   download (394KB)

Other nearby airports with instrument procedures:

KEDN - Enterprise Municipal Airport (15 nm N)
KOZR - Cairns Army Airfield (Fort Rucker) (16 nm NE)
1J0 - Tri-County Airport (19 nm SE)
KLOR - Lowe Army Heliport (Fort Rucker) (19 nm N)
KHEY - Hanchey Army Heliport (Fort Rucker) (21 nm NE)
 
Loc | Ops | Rwys | IFR | FBO | Links
Com | Nav | Svcs | Stats | Notes
Area around 33J (Geneva Municipal Airport)
 
Road maps at: MapQuest Bing Google
 
Aerial photo
WARNING: Photo may not be current or correct
Aerial photo of 33J (Geneva Municipal Airport)
Do you have a better or more recent aerial photo of Geneva Municipal Airport that you would like to share? If so, please send us your photo.

 
Sectional chart

 
Airport distance calculator
Flying to Geneva Municipal Airport? Find the distance to fly.

From to 33J

Sunrise and sunset
Times for 14-Apr-2021
 Local
(UTC-5)
 Zulu
(UTC)
Morning civil twilight05:5310:53
Sunrise06:1811:18
Sunset19:1000:10
Evening civil twilight19:3500:35

Current date and time
Zulu (UTC)  14-Apr-2021 11:09:05
Local (UTC-5)  14-Apr-2021 06:09:05
 
METAR
KEDN 
15nm N 
141055Z AUTO 00000KT 10SM CLR 12/12 A3005 RMK AO2 T01150115
KOZR 
16nm NE 
141056Z AUTO 05003KT 10SM CLR 12/11 A3004 RMK AO2 SLP173 T01170108
KLOR 
19nm N 
140158Z AUTO 00000KT 10SM CLR 21/12 A3009 RMK AO2 SLP171 T02070121
KSXS 
19nm N 
141058Z AUTO 00000KT 10SM CLR 13/11 A3004 RMK AO2 SLP172 T01290113
KHEY 
21nm NE 
141058Z AUTO 02003KT 10SM CLR 12/11 A3004 RMK AO2 SLP173 T01180108
K0J4 
23nm W 
140358Z AUTO 00000KT 10SM CLR 17/12 A3010 RMK AO2 SLP188 T01670117
K54J 
24nm SW 
140955Z AUTO 00000KT 10SM CLR 16/11 A3004 RMK AO2 T01560111
KDHN 
27nm NE 
141053Z 00000KT 10SM CLR 14/12 A3009 RMK AO2 SLP185 T01440122
TAF
KOZR 
16nm NE 
140800Z 1408/1514 VRB05KT 9999 FEW120 SCT220 QNH3004INS BECMG 1415/1416 16007KT 9999 FEW030 SCT080 QNH3003INS BECMG 1419/1420 20009KT 9999 FEW040 BKN080 BKN200 QNH3000INS TEMPO 1421/1423 VRB12G20KT 4800 SHRA BKN040 OVC080 BECMG 1504/1505 22005KT 9999 BKN025 OVC050 QNH2994INS BECMG 1507/1508 22005KT 9999 BKN007 OVC015 QNH2990INS BECMG 1512/1513 33010KT 4800 SHRA VCTS BKN007 OVC015CB QNH2988INS TX30/1419Z TN12/1412Z
NOTAMs
Click for the latest NOTAMs
NOTAMs are issued by the DoD/FAA and will open in a separate window not controlled by AirNav.

 

 
 

FBO, Fuel Providers, and Aircraft Ground Support

  
 Business Name 
 
 Contact 
 
 Services / Description 
 
Fuel Prices
 
Comments
  
Geneva Municipal Airport 334-684-8524
[web site]
Airport management, Aviation fuel

More info about Geneva Municipal Airport
Avfuel
100LL
SS $4.15 
 Updated 17-Nov-2020
 
   write
SS=Self service
Update Fuel Prices
 

Would you like to see your business listed on this page?

 If your business provides an interesting product or service to pilots, flight crews, aircraft, or users of the Geneva Municipal Airport, you should consider listing it here.  To start the listing process, click on the button below
 
Add a business
 

Other Pages about Geneva Municipal Airport

Update a link
 
Copyright © AirNav, LLC. All rights reserved. Privacy Policy  Contact